Inclination: 040.4589 deg
RA of node: 153.8651 deg
Eccentricity: 0.0023486
Arg of perigee: 348.1753 deg
Mean anomaly: 011.8515 deg
Mean motion: 15.85095971 rev/day
Decay rate: 4.16186e-03 rev/day^2
Epoch rev: 8930
Checksum: 317
Satellite: METEOR-M
Catalog number: 35865
Epoch time: 10350.67821250
Element set: 928
Inclination: 098.7349 deg
RA of node: 042.9371 deg
Eccentricity: 0.0002134
Arg of perigee: 181.7313 deg
Mean anomaly: 178.3809 deg
Mean motion: 14.21833517 rev/day
Decay rate: 1.76e-06 rev/day^2
Epoch rev: 6465
Checksum: 302
Satellite: RS-38
Catalog number: 35869
Epoch time: 10350.77023015
Element set: 940
Inclination: 098.7322 deg
RA of node: 043.0679 deg
Eccentricity: 0.0004281
Arg of perigee: 189.0786 deg
Mean anomaly: 171.0281 deg
Mean motion: 14.21996109 rev/day
Decay rate: 1.77e-06 rev/day^2
Epoch rev: 6467
Checksum: 313
/EX
1
0
SB KEPS @ AMSAT $ORB10343.N
2Line Orbital Elements 10343.AMSAT
HR AMSAT ORBITAL ELEMENTS FOR AMATEUR SATELLITES IN NASA FORMAT
FROM WA5QGD FORT WORTH,TX December 9, 2010
Send Subscribe/unsubscribe to KEPS at http://www.amsat.org/mailman/listinfo/keps
BID: ORB10343.N
DECODE 2-LINE ELSETS WITH THE FOLLOWING KEY:
1 AAAAAU 00 0 0 BBBBB.BBBBBBBB .CCCCCCCC 00000-0 00000-0 0 DDDZ
2 AAAAA EEE.EEEE FFF.FFFF GGGGGGG HHH.HHHH III.IIII JJ.JJJJJJJJKKKKKZ
KEY: A-CATALOGNUM B-EPOCHTIME C-DECAY D-ELSETNUM E-INCLINATION F-RAAN
G-ECCENTRICITY H-ARGPERIGEE I-MNANOM J-MNMOTION K-ORBITNUM Z-CHECKSUM
TO ALL RADIO AMATEURS BT
AO-07
1 07530U 74089B 10342.57917997 -.00000027 00000-0 10000-3 0 09496
2 07530 101.3969 351.6420 0011747 293.1209 066.8621 12.53580448650306
FO-29
1 24278U 96046B 10343.88817844 -.00000004 00000-0 30782-4 0 4597
2 24278 098.5182 148.7951 0351080 028.1881 333.7785 13.52955627706866
SO-33
1 25509U 98061B 10343.76114642 .00000227 00000-0 34945-4 0 8558
2 25509 031.4325 235.6176 0352943 025.0627 336.6714 14.28346152633175
RS-22
1 27939U 03042A 10343.63623771 .00000090 00000-0 26092-4 0 7951
2 27939 097.8652 201.4291 0012714 222.2875 137.7345 14.63486392384619
VO-52
1 28650U 05017B 10343.83739860 .00000615 00000-0 83630-4 0 6655
2 28650 097.6698 030.1965 0028107 063.1081 297.3031 14.81869682302709
SO-67
1 35870U 09049F 10343.70883771 .00000819 00000-0 39686-4 0 3636
2 35870 097.3098 027.9857 0002473 171.2705 337.4882 15.21226406 68130
HO-68
1 36122U 09072B 10343.75082074 -.00000045 00000-0 00000 0 0 9175
2 36122 100.4477 042.2160 0007134 298.4101 061.6299 13.16282930 47317
UO-11
1 14781U 84021B 10343.68896955 -.00000045 00000-0 10553-5 0 4133
2 14781 098.0324 035.7293 0009774 036.9475 323.2394 14.79866718437769
AO-16
1 20439U 90005D 10343.79426921 .00000017 00000-0 21955-4 0 640
2 20439 098.3587 295.0108 0011168 010.5705 349.5713 14.31886633 90510
LO-19
1 20442U 90005G 10343.83379606 .00000078 00000-0 44322-4 0 9735
2 20442 098.3220 300.1460 0011845 004.3143 355.8145 14.32115449 90695
AO-27
1 22825U 93061C 10342.88302338 -.00000066 00000-0 -91146-5 0 06956
2 22825 098.5098 286.4975 0009206 112.7939 247.4226 14.29318334897009
IO-26
1 22826U 93061D 10343.40701540 .00000006 00000-0 19095-4 0 4327
2 22826 098.5029 287.5478 0009810 106.8296 253.3952 14.29577301897198
GO-32
1 25397U 98043D 10342.80914241 .00000099 00000-0 61671-4 0 3514
2 25397 098.3168 340.6751 0002200 103.9550 256.1866 14.23191901644881
NO-44
1 26931U 01043C 10343.80353463 .00000166 00000-0 97160-4 0 6269
2 26931 067.0514 111.4988 0006282 278.7623 081.2793 14.29625098479850
SO-50
1 27607U 02058C 10343.88343273 .00000114 00000-0 39769-4 0 3387
2 27607 064.5568 182.8270 0050479 008.5200 351.6744 14.71616963428239
CO-55
1 27844U 03031E 10343.52636697 .00000104 00000-0 68513-4 0 9955
2 27844 098.7085 349.9839 0010430 029.3694 330.8065 14.20752854385986
CO-57
1 27848U 03031J 10343.51134282 .00000060 00000-0 48171-4 0 9444
2 27848 098.7134 349.1009 0010290 033.7671 326.4149 14.20540193385934
AO-51
1 28375U 04025K 10343.86051192 .00000054 00000-0 29170-4 0 8439
2 28375 098.0764 327.5009 0083479 285.0618 074.1341 14.40714575338808
CP3
1 31129U 07012N 10343.07651385 .00000185 00000-0 52713-4 0 7435
2 31129 097.9223 013.1127 0103273 051.6090 309.4294 14.52346923193241
CO-65
1 32785U 08021C 10342.32572584 -.00000044 00000-0 11608-5 0 08575
2 32785 097.8773 044.6474 0016075 078.8969 281.4049 14.81780028141275
KKS-1
1 33493U 09002B 10343.70249679 .00000577 00000-0 80992-4 0 1126
2 33493 098.1038 104.9210 0018797 295.1714 064.7560 14.81231835101467
SOHLA-1
1 33496U 09002E 10342.74492291 .00000058 00000-0 17990-4 0 02765
2 33496 098.0702 089.6848 0006855 018.0654 342.0819 14.69539491100519
TISAT-1
1 36799U 10035E 10343.68016723 .00000434 00000-0 64169-4 0 3868
2 36799 098.1281 044.8680 0015766 164.7196 195.4508 14.80255789 22278
STUDSAT
1 36801U 10035G 10343.32555896 .00001036 00000-0 14447-3 0 1020
2 36801 098.1298 044.3885 0014115 155.0232 205.1666 14.79860387 22215
NOAA-10
1 16969U 86073A 10342.62186645 .00000045 00000-0 36302-4 0 03073
2 16969 098.6399 009.8060 0013133 063.2841 296.9690 14.27437010260463
NOAA-11
1 19531U 88089A 10342.83408192 -.00000188 00000-0 -74747-4 0 03151
2 19531 098.7642 068.8379 0011646 015.3317 344.8212 14.14897782145832
NOAA-12
1 21263U 91032A 10342.75564861 -.00000027 00000-0 74959-5 0 08045
2 21263 098.7586 355.8540 0012743 024.1601 336.0157 14.25671962017275
MET-3/5
1 21655U 91056A 10342.90840334 .00000051 00000-0 10000-3 0 09845
2 21655 082.5551 185.1936 0012417 273.9618 086.0095 13.17028379928672
MET-2/21
1 22782U 93055A 10342.85610294 .00000030 00000-0 13533-4 0 09608
2 22782 082.5467 113.8869 0020918 273.3319 086.5466 13.83651279872231
OKEAN-4
1 23317U 94066A 10342.75446689 .00000260 00000-0 28950-4 0 04159
2 23317 082.5394 190.9152 0023115 030.2318 330.0228 14.82905518872328
NOAA-14
1 23455U 94089A 10342.80511560 .00000020 00000-0 33750-4 0 02947
2 23455 098.8677 062.2271 0010247 098.9951 261.2372 14.13802646822179
NOAA-15
1 25338U 98030A 10343.42927909 .00000117 00000-0 68837-4 0 6244
2 25338 098.6376 327.3744 0009840 286.8180 073.1947 14.24871364653708
RESURS
1 25394U 98043A 10342.57918893 .00000017 00000-0 24767-4 0 06712
2 25394 098.2995 351.1178 0002436 071.4793 288.6649 14.24218219645179
FENGYUN1
1 25730U 99025A 10342.79795248 .00001239 00000-0 74620-3 0 02049
2 25730 098.8020 303.3569 0020278 127.4571 232.8445 14.08464641596265
OKEAN-0
1 25860U 99039A 10343.66411225 .00000096 00000-0 22039-4 0 1716
2 25860 097.8576 310.6396 0000693 100.4869 259.6406 14.73690447612746
NOAA-16
1 26536U 00055A 10343.39322465 .00000255 00000-0 16288-3 0 1023
2 26536 099.1599 004.9062 0010412 201.8480 158.2246 14.12590185526566
NOAA-17
1 27453U 02032A 10342.79164106 .00000250 00000-0 12630-3 0 00940
2 27453 098.4089 025.9922 0011540 351.9183 008.1783 14.24217272439556
NOAA-18
1 28654U 05018A 10342.83521298 .00000395 00000-0 24309-3 0 05823
2 28654 098.9732 288.7702 0013597 282.2874 077.6783 14.11417072286076
NOAA-19
1 33591U 09005A 10342.86144618 -.00000142 00000-0 -54452-4 0 07758
2 33591 098.8092 281.4148 0014456 151.8484 208.3471 14.11108806094545
HUBBLE
1 20580U 90037B 10343.84618904 .00000624 00000-0 34781-4 0 6856
2 20580 028.4677 172.9995 0003542 258.4127 101.6171 15.01112968931178
ISS
1 25544U 98067A 10344.03577257 .00023227 00000-0 16969-3 0 4252
2 25544 051.6479 050.5362 0007816 329.1455 094.4888 15.73097633691131
CO-58
1 28895U 05043F 10342.68262821 .00000227 00000-0 56570-4 0 07478
2 28895 097.9905 221.1316 0018900 098.0753 262.2617 14.59976262272445
FALCON
1 30776U 07006E 10342.62472322 .00000936 00000-0 69393-4 0 9749
2 30776 035.4327 065.0055 0001381 292.6259 067.4311 15.03995598206338
MAST
1 31126U 07012K 10343.61280000 .00000240 00000-0 64252-4 0 317
2 31126 097.9181 016.3581 0095504 041.0587 319.7737 14.53652229193540
CAPE1
1 31130U 07012P 10343.55762925 -.00000020 00000-0 57996-5 0 502
2 31130 097.9201 013.3810 0103483 050.4447 310.5816 14.52262421193115
COMPASS
1 32787U 08021E 10343.71807186 .00000259 00000-0 39224-4 0 8503
2 32787 097.8741 045.8728 0016826 074.2157 286.0903 14.82070736141493
AAUSAT2
1 32788U 08021F 10342.62340560 .00000652 00000-0 88133-4 0 08411
2 32788 097.8756 044.9666 0016677 078.8780 281.4318 14.82227999141345
DO-64
1 32789U 08021G 10342.74470955 .00001015 00000-0 13281-3 0 08580
2 32789 097.8833 045.7772 0016568 078.0890 282.2208 14.82478988141367
CO-66
1 32791U 08021J 10343.15951098 .00000716 00000-0 97116-4 0 8421
2 32791 097.8756 045.3124 0017199 075.4376 284.8729 14.81825282141360
RS-30
1 32953U 08025A 10343.75688228 .00000010 00000-0 00000 0 0 2830
2 32953 082.5011 280.4982 0020178 078.7472 281.5874 12.43009728115555
TACSAT-3
1 35001U 09028A 10343.86019615 .00006698 00000-0 14731-3 0 4516
2 35001 040.4554 237.3506 0023279 243.9376 115.9049 15.43959127 87770
PHARMSAT
1 35002U 09028B 10343.83057480 .00005960 00000-0 13019-3 0 4212
2 35002 040.4700 235.0732 0025549 245.8849 113.9347 15.44247211 87794
HAWKSAT1
1 35003U 09028C 10343.85170535 .00015183 00000-0 26586-3 0 4572
2 35003 040.4595 222.9864 0025188 269.1669 090.6294 15.49852669 87938
CP6
1 35004U 09028D 10342.80738742 .00018099 00000-0 29624-3 0 04583
2 35004 040.4613 226.4522 0024469 267.1123 092.6980 15.51674055087796
AEROCUB3
1 35005U 09028E 10343.82412639 .00258325 00000-0 12344-2 0 5535
2 35005 040.4587 198.5894 0024470 297.0840 062.7505 15.80787148 88194
METEOR-M
1 35865U 09049A 10343.71142920 .00000176 00000-0 10000-3 0 9084
2 35865 098.7359 036.0397 0001678 210.9275 149.1757 14.21833451 63663
RS-38
1 35869U 09049E 10343.80424146 .00000177 00000-0 10000-3 0 9194
2 35869 098.7345 036.1725 0004041 212.0080 148.0824 14.21995414 63685
/EX
1
0
SB KEPS @ AMSAT $ORB10343.O
Orbital Elements 10343.OSCAR
HR AMSAT ORBITAL ELEMENTS FOR OSCAR SATELLITES
FROM WA5QGD FORT WORTH,TX December 9, 2010
Send Subscribe/unsubscribe to KEPS at http://www.amsat.org/mailman/listinfo/keps
BID: ORB10343.O
TO ALL RADIO AMATEURS BT
Satellite: AO-07
Catalog number: 07530
Epoch time: 10342.57917997
Element set: 0949
Inclination: 101.3969 deg
RA of node: 351.6420 deg
Eccentricity: 0.0011747
Arg of perigee: 293.1209 deg
